カタログに戻る

COSMOS 2559

GLONASS

運用中ナビゲーションMEO
NORAD 54031·PAYLOAD·🇷🇺 Russia

打ち上げ Oct 10, 2022 から Plesetsk Cosmodrome

Loading…

次のパス (今後24時間)

TLE

最新Source: CelesTrak SupGP

元期: Sep 12, 2026, 23:59 UTC

1 54031C 22130A   26255.99979167  .00000000  00000+0  00000+0 0  2551
2 54031  64.2142 311.4679 0013556 188.2557  56.7998  2.13101725    18

AllMySatでCOSMOS 2559をリアルタイム追跡

Download on the App Store